Powrót do katalogu

STARLINK-35620

AktywnyŁącznośćVLEO
NORAD 66474·PAYLOAD·🇺🇸 United States

Wystrzelony Nov 15, 2025 z Cape Canaveral Space Force Station

Loading…

Następne Przeloty (najbliższe 24 godziny)

TLE

ŚwieżeSource: CelesTrak SupGP

Epoka: Sep 15, 2026, 02:52 UTC

1 66474C 25262U   26258.11993056  .00028760  00000+0  10416-2 0  2585
2 66474  43.0000 306.2121 0001411 260.1722 295.8086 15.27567381    12

Śledź STARLINK-35620 w czasie rzeczywistym z AllMySat

Download on the App Store